Location: Brantley
(31.5822°N, 86.2569°W)
Time: 23:07:02
(UTC+00:00)

A-11 Canister half - Pass Details

Date: 22 February 2026
Orbit: 1525 x 1683 km, 47.3° (Epoch: 10 March)

Event Time Altitude Azimuth Distance (km) Brightness Sun altitude
Rises 23:57:00 0° 290° (WNW) 4,703 12.8 -5.0°
Reaches altitude 10° 00:00:39 10° 302° (WNW) 3,706 11.8 -5.8°
Maximum altitude 00:08:33 30° 0° (N) 2,480 10.1 -7.5°
Drops below altitude 10° 00:16:26 10° 59° (ENE) 3,698 10.4 -9.1°
Enters shadow 00:17:16 - 62° (ENE) 3,917 10.6 -9.3°
